Flag for Burkina Faso Weather past 2 weeks in Koudougou, Burkina Faso

Now
73 °F

Clear.


Feels Like: 75 °F
Forecast: 66 / 94 °F
Wind: 6 mph from North

Location: Ouagadougou Airport

Current Time: Jan 27, 2015 at 2:17:50 AM

Latest Report: Jan 27, 2015 at 1:00 AM


Visibility: 10 mi

Pressure: 29.98 "Hg

Humidity: 17%

Dew point: 27 °F

Location of KoudougouLocation

Historic Weather in Koudougou — Graph

°F

Koudougou temperature yesterday

Maximum temperature yesterday: 91 °F (at 1:00 PM)
Minimum temperature yesterday: 68 °F (at 6:00 AM)
Average temperature yesterday: 78 °F

Past Weeks' High & Low Weather Summary

 TemperatureHumidityPressure
High97 °F (Jan 21, 3:00 PM)45% (Jan 20, 6:00 AM)30.12 "Hg (Jan 20, 6:00 AM)
Low55 °F (Jan 14, 7:00 AM)8% (Jan 19, 3:00 PM)29.83 "Hg (Jan 20, 2:00 PM)
Average77 °F20%29.97 "Hg
* Reported Jan 12 1:00 AM — Jan 27 1:00 AM, Koudougou, Weather by CustomWeather, © 2014

Note: Actual official high and low records may vary slightly from our data, if they occured in-between our weather recording intervals... More about our weather records

Advertising

Koudougou weather history for previous 24 hours

 ConditionsComfort  
Time TempWeatherWind HumidityBarometerVisibility
1:00 AM
Jan 27
73 °FClear.6 mph17%29.98 "Hg10 mi
12:00 AM75 °FClear.6 mph16%30.01 "Hg10 mi
11:00 PM
Jan 26
77 °FClear.7 mph15%30.01 "Hg10 mi
10:00 PM81 °FClear.8 mph14%30.01 "Hg10 mi
9:00 PM82 °FClear.8 mph13%29.98 "Hg10 mi
7:00 PM84 °FClear.3 mph14%29.95 "Hg4 mi
6:00 PM88 °FClear.6 mph12%29.92 "Hg5 mi
5:00 PM91 °FClear.7 mph10%29.89 "Hg5 mi
1:00 PM91 °FClear.7 mph9%29.92 "Hg5 mi
11:00 AM86 °FClear.12 mph10%29.98 "Hg5 mi
10:00 AM82 °FClear.10 mph12%30.01 "Hg5 mi
9:00 AM77 °FClear.13 mph13%30.01 "Hg4 mi
8:00 AM72 °FHaze.7 mph17%29.98 "Hg2 mi
7:00 AM68 °FClear.6 mph18%30.01 "Hg4 mi
6:00 AM68 °FClear.6 mph18%29.95 "Hg10 mi
5:00 AM70 °FClear.5 mph17%29.95 "Hg10 mi
4:00 AM72 °FClear.5 mph17%29.92 "Hg10 mi
3:00 AM72 °FClear.5 mph19%29.92 "Hg10 mi
2:00 AM73 °FClear.5 mph16%29.92 "Hg10 mi
Weather by CustomWeather, © 2014

See weather overviewHow to use our weather pages